CDT,Max TemperatureF,Mean TemperatureF,Min TemperatureF,Max Dew PointF,MeanDew PointF,Min DewpointF,Max Humidity, Mean Humidity, Min Humidity, Max Sea Level PressureIn, Mean Sea Level PressureIn, Min Sea Level PressureIn, Max VisibilityMiles, Mean VisibilityMiles, Min VisibilityMiles, Max Wind SpeedMPH, Mean Wind SpeedMPH, Max Gust SpeedMPH,PrecipitationIn, CloudCover, Events, WindDirDegrees
2014-3-1,38,25,12,23,13,6,81,65,48,30.37,30.25,30.00,10,7,1,21,14,24,0.01,8,Snow,1
2014-3-2,12,6,-1,5,-3,-13,83,67,51,30.53,30.42,30.33,10,6,0,21,15,25,0.02,6,Snow,357
2014-3-3,16,4,-9,4,-8,-17,72,56,40,30.59,30.51,30.35,10,10,10,17,5,20,0.00,0,,6
2014-3-4,36,23,10,18,11,4,70,56,41,30.36,30.21,30.12,10,10,10,14,7,16,0.00,1,,152
2014-3-5,37,31,24,21,19,17,81,67,52,30.36,30.27,30.16,10,10,6,20,11,24,0.00,2,,80
2014-3-6,42,32,21,24,20,17,84,63,41,30.34,30.22,30.06,10,7,5,13,6,16,0.00,2,,117
2014-3-7,58,44,30,34,28,21,82,61,40,30.05,29.96,29.87,10,8,4,16,10,21,0.00,0,,210
2014-3-8,36,32,28,31,30,24,89,84,78,30.32,30.18,30.02,8,3,2,16,9,20,0.01,8,Rain,346
2014-3-9,52,38,23,33,28,20,92,70,48,30.33,30.14,29.91,10,9,4,22,10,26,0.00,0,,218
2014-3-10,63,52,41,36,34,30,67,52,36,29.91,29.79,29.70,10,10,9,21,9,24,0.00,0,,230
2014-3-11,71,52,33,49,37,32,77,61,44,29.72,29.61,29.51,10,9,4,33,13,39,0.18,2,Rain-Snow,84
2014-3-12,39,33,27,32,27,21,96,75,54,30.16,29.96,29.72,10,7,1,28,17,35,0.01,6,Snow,331
2014-3-13,59,42,24,35,27,20,84,61,35,30.15,30.03,29.86,10,10,10,14,6,22,0.00,1,,188
2014-3-14,61,49,36,35,28,24,53,41,29,29.99,29.83,29.73,10,10,10,30,15,38,0.00,0,,259
2014-3-15,61,46,31,36,29,24,72,53,33,30.06,30.01,29.94,10,10,10,26,11,36,0.00,0,,94
2014-3-16,37,27,17,29,20,13,88,73,58,30.26,30.17,30.08,10,6,0,29,18,37,T,6,Fog-Snow,41
2014-3-17,44,29,14,20,15,10,88,59,30,30.12,29.91,29.75,10,10,10,13,7,18,0.00,0,,124
2014-3-18,60,45,30,38,31,20,82,59,36,29.76,29.65,29.54,10,10,9,26,14,38,T,2,Rain,149
2014-3-19,50,39,27,43,32,24,89,71,53,30.12,29.88,29.55,10,8,4,28,14,34,T,5,,279
2014-3-20,64,46,28,34,29,23,85,56,26,30.10,30.01,29.89,10,10,10,18,7,22,0.00,2,,178
2014-3-21,68,50,31,35,32,29,82,55,28,30.05,29.86,29.75,10,10,7,26,13,33,0.00,0,,304
2014-3-22,42,35,28,28,21,11,78,57,36,30.41,30.25,30.07,10,10,10,22,15,26,0.00,5,,343
2014-3-23,37,29,21,12,9,5,62,45,27,30.52,30.45,30.38,10,10,10,18,11,23,0.00,1,,5
2014-3-24,39,31,23,24,15,10,69,52,35,30.40,30.30,30.17,10,10,10,21,6,25,0.00,6,,9
2014-3-25,35,28,20,27,17,7,84,58,32,30.31,30.24,30.15,10,9,2,28,13,35,T,4,Snow,323
2014-3-26,49,34,18,31,15,10,73,49,24,30.31,30.16,29.92,10,10,10,24,13,36,0.03,2,Rain,158
2014-3-27,56,47,38,50,41,33,89,78,66,29.90,29.61,29.45,10,9,2,26,17,34,0.44,7,Rain-Thunderstorm,180
2014-3-28,45,41,37,34,33,32,85,75,65,30.18,29.98,29.69,10,9,7,22,9,31,0.00,8,,328
2014-3-29,48,41,34,32,30,28,82,66,50,30.26,30.22,30.14,10,8,6,15,9,22,0.00,5,,334
2014-3-30,65,48,30,37,32,26,85,58,30,30.26,30.12,29.96,10,8,4,18,11,24,0.00,0,,167
2014-3-31,70,58,46,44,39,35,71,51,31,29.96,29.80,29.66,10,10,9,35,17,42,T,2,Rain,180